Location: Ladrillo (historical)
(32.8195°N, 117.2231°W)
Time: 15:52:29
(UTC+00:00)

Hubble Space Telescope - Visible Passes

Search period start: 30 November 2021 00:00
Search period end: 10 December 2021 00:00
Orbit: 534 x 538 km, 28.5° (Epoch: 29 November)

Date Brightness Start Highest point End Pass type
(mag) Time Alt. Az. Time Alt. Az. Time Alt. Az.
30 Nov 2.6 12:11:10 28° SE 12:11:10 28° SE 12:13:26 10° ESE visible
30 Nov 2.0 13:46:38 10° WSW 13:50:22 33° SSW 13:54:05 10° SE visible
01 Dec 3.1 12:00:42 21° ESE 12:00:42 21° ESE 12:02:15 10° ESE visible
01 Dec 2.1 13:36:01 12° WSW 13:39:10 29° SSW 13:42:45 10° SE visible
02 Dec 3.6 11:50:14 15° ESE 11:50:14 15° ESE 11:51:03 10° ESE visible
02 Dec 2.3 13:25:32 15° WSW 13:27:57 25° SSW 13:31:22 10° SE visible
03 Dec 4.0 11:39:46 10° ESE 11:39:46 10° ESE 11:39:51 10° ESE visible
03 Dec 2.5 13:15:04 17° SW 13:16:43 22° SSW 13:19:55 10° SSE visible
04 Dec 2.6 13:04:37 17° SW 13:05:29 18° SSW 13:08:21 10° SSE visible
05 Dec 2.9 12:54:11 15° SSW 12:54:15 15° SSW 12:56:39 10° SSE visible
06 Dec 3.3 12:43:46 12° SSW 12:43:46 12° SSW 12:44:39 10° S visible
